Home > Time Zones > World Clock > Weather > Ghana > Accra > Past weeks

Flag for Ghana Weather past 2 weeks in Accra, Ghana

Now
79 °F

Passing clouds.


Feels Like: 83 °F
Forecast: 81 / 90 °F
Wind: 8 mph from West

Location: Accra Airport

Current Time: Mar 1, 2015 at 3:29:52 AM

Latest Report: Mar 1, 2015 at 3:00 AM


Visibility: N/A

Pressure: 29.83 "Hg

Humidity: 94%

Dew point: 77 °F

Location of AccraLocation

Historic Weather in Accra — Graph

°F

Accra temperature yesterday

Maximum temperature yesterday: 88 °F (at 11:00 AM)
Minimum temperature yesterday: 79 °F (at 7:00 AM)
Average temperature yesterday: 84 °F

Past Weeks' High & Low Weather Summary

 TemperatureHumidityPressure
High91 °F (Feb 17, 12:00 PM)100% (Feb 18, 10:00 PM)29.95 "Hg (Feb 18, 10:00 PM)
Low73 °F (Feb 18, 10:00 PM)55% (Feb 22, 12:00 PM)29.74 "Hg (Feb 17, 3:00 PM)
Average83 °F81%29.84 "Hg
* Reported Feb 14 2:00 AM — Mar 1 2:00 AM, Accra, Weather by CustomWeather, © 2015

Note: Actual official high and low records may vary slightly from our data, if they occured in-between our weather recording intervals... More about our weather records

Advertising

Accra weather history for previous 24 hours

 ConditionsComfort  
Time TempWeatherWind HumidityBarometerVisibility
2:00 AM
Sun, Mar 1
81 °FPassing clouds.7 mph89%29.86 "HgN/A
1:00 AM82 °FPassing clouds.6 mph89%29.86 "HgN/A
12:00 AM82 °FPassing clouds.7 mph89%29.89 "HgN/A
11:00 PM
Sat, Feb 28
82 °FPassing clouds.7 mph84%29.92 "HgN/A
10:00 PM82 °FClear.6 mph84%29.92 "Hg10 mi
9:00 PM82 °FClear.7 mph84%29.89 "Hg10 mi
8:00 PM82 °FClear.7 mph84%29.89 "Hg10 mi
7:00 PM82 °FPassing clouds.8 mph84%29.86 "HgN/A
6:00 PM84 °FBroken clouds.10 mph79%29.83 "HgN/A
5:00 PM84 °FPassing clouds.8 mph79%29.80 "HgN/A
4:00 PM86 °FScattered clouds.10 mph75%29.80 "HgN/A
3:00 PM88 °FPassing clouds.10 mph70%29.77 "HgN/A
2:00 PM88 °FPassing clouds.12 mph70%29.80 "HgN/A
1:00 PM88 °FPassing clouds.10 mph66%29.83 "HgN/A
12:00 PM88 °FScattered clouds.9 mph66%29.86 "HgN/A
11:00 AM88 °FPartly sunny.8 mph66%29.89 "HgN/A
10:00 AM86 °FPartly sunny.6 mph70%29.89 "HgN/A
9:00 AM84 °FPassing clouds.5 mph79%29.89 "HgN/A
8:00 AM82 °FPassing clouds.5 mph84%29.89 "HgN/A
7:00 AM79 °FPassing clouds.5 mph94%29.86 "Hg5 mi
6:00 AM81 °FClear.5 mph89%29.83 "Hg10 mi
4:00 AM81 °FPassing clouds.2 mph94%29.83 "HgN/A
3:00 AM81 °FPartly cloudy.5 mph94%29.83 "HgN/A
Weather by CustomWeather, © 2015

See weather overviewHow to use our weather pages